This demonstration page uses our WeatherBlox Daily Observations layout. Learn more.

Left ArrowRight Arrow

39.29038, -76.61219

Hourly Observations for February 24, 2021

Temp ( °F °C ) Dew Point ( °F °C ) Humidity (%) Winds ( mph kmh ) Pressure ( in mb ) Visibility ( mi km ) Precip ( " mm )
12:54 am 00:54 Clear 38 3.3 26 -3.3 62 62 W 3 6 30.04 1017 10 16 N/A
1:54 am 01:54 Mostly Clear 37 2.8 27 -2.8 67 67 N N/A 30.04 1017 10 16 N/A
2:54 am 02:54 Mostly Cloudy 33 0.6 26 -3.3 75 75 N N/A 30.05 1018 10 16 N/A
3:54 am 03:54 Mostly Cloudy 32 undefined 26 -3.3 79 79 W 3 6 30.05 1018 10 16 N/A
4:54 am 04:54 Mostly Cloudy 32 undefined 26 -3.3 79 79 N N/A 30.08 1019 10 16 N/A
5:54 am 05:54 Mostly Cloudy 31 -0.6 26 -3.3 82 82 N N/A 30.09 1019 10 16 N/A
6:54 am 06:54 Mostly Cloudy 30 -1.1 25 -3.9 82 82 N N/A 30.09 1019 10 16 N/A
7:54 am 07:54 Mostly Cloudy 35 1.7 28 -2.2 76 76 N N/A 30.10 1019 10 16 N/A
8:54 am 08:54 Mostly Cloudy 46 7.8 29 -1.7 51 51 S 5 7 30.09 1019 10 16 N/A
9:54 am 09:54 Mostly Cloudy 51 10.6 28 -2.2 41 41 S 9 15 30.09 1019 10 16 N/A
10:54 am 10:54 Partly Cloudy 55 12.8 27 -2.8 34 34 S 10 17 30.07 1018 10 16 N/A
11:54 am 11:54 Partly Cloudy 58 14.4 28 -2.2 32 32 S 10 17 30.05 1018 10 16 N/A
12:54 pm 12:54 Sunny 61 16.1 25 -3.9 25 25 S 12 19 30.01 1016 10 16 N/A
1:54 pm 13:54 Sunny 62 16.7 24 -4.4 23 23 S 14 22 29.95 1014 10 16 N/A
2:54 pm 14:54 Sunny 63 17.2 26 -3.3 25 25 S 15 24 29.92 1013 10 16 N/A
3:54 pm 15:54 Sunny 61 16.1 31 -0.6 32 32 SE 10 17 29.88 1012 10 16 N/A
4:54 pm 16:54 Sunny 57 13.9 33 0.6 41 41 SE 10 17 29.85 1011 10 16 N/A
5:54 pm 17:54 Sunny 53 11.7 34 1.1 48 48 SSE 7 11 29.84 1010 10 16 N/A
6:54 pm 18:54 Mostly Clear 51 10.6 35 1.7 54 54 SSE 7 11 29.83 1010 10 16 N/A
7:54 pm 19:54 Partly Cloudy 50 10 34 1.1 54 54 N N/A 29.82 1010 10 16 N/A
8:54 pm 20:54 Mostly Clear 50 10 34 1.1 54 54 SSW 5 7 29.82 1010 10 16 N/A
9:54 pm 21:54 Clear 45 7.2 33 0.6 63 63 WNW 5 7 29.81 1010 10 16 N/A
10:54 pm 22:54 Clear 46 7.8 32 undefined 58 58 W 3 6 29.84 1011 10 16 N/A
11:54 pm 23:54 Partly Cloudy 42 5.6 32 undefined 68 68 W 7 11 29.85 1011 10 16 N/A

Powered by AerisWeather